Weather Roundup
Issued by NWS Springfield, MO

Home | Current Version | Previous Version | Text Only | Print | Product List | Glossary On
Versions: 1 2 3 4 5 6 7 8 9 10 11 12 13 14 15 16 17 18 19 20 21 22 23 24 25 26 27 28 29 30 31 32 33 34 35 36 37 38 39 40 41 42 43 44 45 46 47 48 49 50
105
NZUS99 KSGF 290707
HRRSGF

HOURLY WEATHER
NATIONAL WEATHER SERVICE SPRINGFIELD MO
200 AM CDT WED MAR 29 2017

......SGF CWA......

CITY           SKY/WX    TMP DP  RH WIND       PRES   REMARKS
SPRINGFIELD    MOCLDY    56  49  77 SE20      29.88F
JOPLIN         CLOUDY    61  54  77 SE21G35   29.76F
WEST PLAINS    CLOUDY    54  49  83 E13       29.98F
ROLLA          CLOUDY    52  48  86 E14       30.00F
OSAGE BEACH    CLOUDY    53  48  83 E9        29.98
BRANSON        LGT RAIN  55  52  88 E17G25    29.91F

......SURROUNDING SGF CWA......

CITY           SKY/WX    TMP DP  RH WIND       PRES   REMARKS
CHANUTE        TSTM      56  52  86 SW21G32   29.80R
PARSONS        TSTM      60  55  83 SW6       29.76R
COFFEYVILLE    TSTM      58  56  93 SW13      29.77R FOG
EMPORIA        HVY RAIN  50  50 100 NE22G28   29.82R FOG
GROVE OK       CLOUDY    64  57  77 E14G22    29.76F
ROGERS AR      CLOUDY    61  55  81 E16       29.82F
SILOAM SPRINGS CLOUDY    64  55  72 SE12G20   29.79S
HARRISON AR    CLOUDY    56  53  90 SE13      29.90F
NEAR YELLVILLE CLOUDY    57  46  67 E8        29.92F

......KANSAS AND MISSOURI......

CITY           SKY/WX    TMP DP  RH WIND       PRES   REMARKS
KANSAS CTY INT CLOUDY    52  49  89 E20       29.94F
DOWNTOWN KC    CLOUDY    54  49  83 E18G29    29.91F
COLUMBIA       CLOUDY    52  49  89 E14       30.02F
SEDALIA        CLOUDY    54  49  83 E22       29.97S
ST JOSEPH      CLOUDY    52  48  86 NE10      29.99F
ST LOUIS       CLOUDY    54  46  74 E12       30.09S
SPIRIT OF STL  CLOUDY    53  48  83 NE7       30.08S
KIRKSVILLE     CLOUDY    49  46  90 E9        30.08F
WICHITA        TSTM      51  51 100 N28G37    29.79F FOG
TOPEKA         TSTM      51  51 100 NE9       29.94R FOG
OLATHE         CLOUDY    52  50  93 E16G29    29.88F

......TENNESSEE......

CITY           SKY/WX    TMP DP  RH WIND       PRES   REMARKS
MEMPHIS        CLEAR     63  54  72 E12       29.95F
NASHVILLE      CLEAR     54  52  93 NE5       30.05S

......ARKANSAS.......

CITY           SKY/WX    TMP DP  RH WIND       PRES   REMARKS
FAYETTEVILLE   CLOUDY    65  58  78 SE10      29.81F
FT SMITH       MOCLDY    66  56  70 SE17G31   29.81S
LITTLE ROCK    CLOUDY    62  57  83 E13       29.90F

......OKLAHOMA.......

CITY           SKY/WX    TMP DP  RH WIND       PRES   REMARKS
TULSA          CLOUDY    61  58  90 VRB5      29.75F
PONCA CITY     RAIN      53  49  86 N25G32    29.72S
MCALESTER      CLOUDY    72  60  66 SE10G18   29.72F
OKLAHOMA CITY  TSTM      52  51  97 NW12      29.76S FOG

......IOWA............

CITY           SKY/WX    TMP DP  RH WIND       PRES   REMARKS
DES MOINES     CLOUDY    49  44  83 E8        30.11R
QUAD CITIES    MOCLDY    42  38  85 E10       30.17R

......ILLINOIS........

CITY           SKY/WX    TMP DP  RH WIND       PRES   REMARKS
QUINCY         CLOUDY    48  44  86 E12       30.10F
CHICAGO        FOG       36  34  92 NE7       30.22F VSB 1/2 WCI  30




USA.gov is the U.S. government's official web portal to all federal, state and local government web resources and services.